Split Airport, Croatia

9:06 PM CEST on April 26, 2017 (GMT +0200)
Kastela

Weather History for LDSP - October, 2013

Change the Weather History Date:

Thursday, October 3, 2013

  Actual Average Record
Temperature  
Mean Temperature 58 °F -  
Max Temperature 66 °F - - ()
Min Temperature 51 °F - - ()
Degree Days  
Heating Degree Days 6    
Growing Degree Days 8 (Base 50)    
Moisture  
Dew Point 33 °F    
Average Humidity 37    
Maximum Humidity 47    
Minimum Humidity 20    
Precipitation  
Precipitation 0.00 in - - ()
Sea Level Pressure  
Sea Level Pressure 30.24 in    
Wind  
Wind Speed 8 mph ()    
Max Wind Speed 17 mph    
Max Gust Speed -    
Visibility 19.0 miles    
Events      
T = Trace of Precipitation, MM = Missing Value Source: Averaged Metar Reports

Daily Weather History Graph

Daily Weather History Graph

Search for Another Location

Airport or City:

Trip Planner

Search our weather history database for the weather conditions in past years. The results will help you decide how hot, cold, wet, or windy it might be!

Date:

Astronomy

Oct. 03, 2013 Rise Set
Actual Time 6:54 AM CEST 6:32 PM CEST
Civil Twilight 6:26 AM CEST 7:00 PM CEST
Nautical Twilight 5:52 AM CEST 7:33 PM CEST
Astronomical Twilight 5:19 AM CEST 8:07 PM CEST
Moon 5:07 AM CEST (10/3) 5:32 PM CEST (10/3)
Length of Visible Light 12h 34m
Length of Day
11h 37m
Waning Crescent, 3% of the Moon is Illuminated
Oct 3
Waning Crescent
Oct 5
New
Oct 12
First Quarter
Oct 19
Full
Oct 27
Last Quarter

Hourly Weather History & Observations

Time (CEST) Temp. Dew Point Humidity Pressure Visibility Wind Dir Wind Speed Gust Speed Precip Events Conditions
12:00 AM 57.2 °F 33.8 °F 41% 30.15 in - NE 11.5 mph - N/A   Clear
12:30 AM 57.2 °F 33.8 °F 41% 30.15 in - ENE 9.2 mph - N/A   Clear
1:00 AM 57.2 °F 33.8 °F 41% 30.18 in - ENE 8.1 mph - N/A   Clear
1:30 AM 57.2 °F 33.8 °F 41% 30.18 in - ENE 6.9 mph - N/A   Clear
2:00 AM 56 °F 32 °F 28% 30.20 in 19 mi East 6.7 mph - -  
2:00 AM 55.4 °F 32.0 °F 41% 30.18 in - Variable 5.8 mph - N/A   Clear
2:30 AM 55.4 °F 32.0 °F 41% 30.18 in - Variable 6.9 mph - N/A   Clear
3:00 AM 55.4 °F 32.0 °F 41% 30.18 in - NE 13.8 mph - N/A   Clear
3:30 AM 55.4 °F 32.0 °F 41% 30.18 in - NNE 16.1 mph - N/A   Clear
4:00 AM 55.4 °F 32.0 °F 41% 30.18 in - NNE 17.3 mph - N/A   Clear
4:30 AM 53.6 °F 32.0 °F 44% 30.21 in - NNE 10.4 mph - N/A   Clear
5:00 AM 55 °F 33 °F 30% 30.22 in 19 mi ENE 2.2 mph - -  
5:00 AM 55.4 °F 32.0 °F 41% 30.21 in - Variable 2.3 mph - N/A   Clear
5:30 AM 53.6 °F 32.0 °F 44% 30.21 in - Variable 2.3 mph - N/A   Clear
6:00 AM 53.6 °F 32.0 °F 44% 30.21 in - ENE 5.8 mph - N/A   Clear
6:30 AM 53.6 °F 32.0 °F 44% 30.21 in - NE 10.4 mph - N/A   Clear
7:00 AM 53.6 °F 32.0 °F 44% 30.21 in - NNE 13.8 mph - N/A   Clear
7:30 AM 53.6 °F 33.8 °F 47% 30.24 in - ENE 9.2 mph - N/A   Clear
8:00 AM 55.4 °F 32.0 °F 41% 30.24 in - ENE 9.2 mph - N/A   Clear
8:30 AM 55.4 °F 33.8 °F 44% 30.24 in - ENE 4.6 mph - N/A   Clear
9:00 AM 57.2 °F 35.6 °F 44% 30.27 in - NE 5.8 mph - N/A   Clear
9:30 AM 57.2 °F 35.6 °F 44% 30.27 in - NE 8.1 mph - N/A   Clear
10:00 AM 59.0 °F 35.6 °F 42% 30.27 in - NE 12.7 mph - N/A   Clear
10:30 AM 60.8 °F 33.8 °F 36% 30.27 in - NNE 12.7 mph - N/A   Clear
11:00 AM 61 °F 33 °F 23% 30.29 in 31 mi NE 11.2 mph - -  
11:00 AM 60.8 °F 33.8 °F 36% 30.27 in - NE 10.4 mph - N/A   Clear
11:30 AM 60.8 °F 35.6 °F 39% 30.27 in - ENE 9.2 mph - N/A   Clear
12:00 PM 62.6 °F 33.8 °F 34% 30.27 in - ENE 6.9 mph - N/A   Clear
12:30 PM 62.6 °F 35.6 °F 37% 30.27 in - East 11.5 mph - N/A   Clear
1:00 PM 64.4 °F 35.6 °F 34% 30.27 in - East 10.4 mph - N/A   Clear
1:30 PM 64.4 °F 35.6 °F 34% 30.27 in - East 6.9 mph - N/A   Clear
2:00 PM 65 °F 34 °F 20% 30.27 in 31 mi East 8.9 mph - -  
2:00 PM 64.4 °F 33.8 °F 32% 30.24 in - Variable 8.1 mph - N/A   Clear
2:30 PM 64.4 °F 33.8 °F 32% 30.24 in - NE 5.8 mph - N/A   Clear
3:00 PM 66.2 °F 35.6 °F 32% 30.24 in - East 8.1 mph - N/A   Clear
3:30 PM 66.2 °F 35.6 °F 32% 30.24 in - East 8.1 mph - N/A   Clear
4:00 PM 66.2 °F 37.4 °F 35% 30.24 in - East 6.9 mph - N/A   Clear
4:30 PM 66.2 °F 35.6 °F 32% 30.24 in - Variable 3.5 mph - N/A   Clear
5:00 PM 66 °F 36 °F 22% 30.25 in 31 mi SSE 4.5 mph - -  
5:00 PM 66.2 °F 35.6 °F 32% 30.24 in - SSE 4.6 mph - N/A   Clear
5:30 PM 64.4 °F 35.6 °F 34% 30.24 in - Variable 3.5 mph - N/A   Clear
6:00 PM 64.4 °F 35.6 °F 34% 30.24 in - Variable 3.5 mph - N/A   Clear
6:30 PM 60.8 °F 35.6 °F 39% 30.24 in - NNE 4.6 mph - N/A   Clear
7:00 PM 59.0 °F 32.0 °F 36% 30.27 in - Variable 2.3 mph - N/A   Clear
7:30 PM 57.2 °F 33.8 °F 41% 30.27 in - NNW 5.8 mph - N/A   Clear
8:00 PM 57 °F 32 °F 26% 30.30 in 31 mi NNW 8.9 mph - -  
8:00 PM 57.2 °F 32.0 °F 38% 30.27 in - NNW 9.2 mph - N/A   Clear
8:30 PM 57.2 °F 32.0 °F 38% 30.30 in - North 8.1 mph - N/A   Clear
9:00 PM 57.2 °F 30.2 °F 36% 30.30 in - NNW 8.1 mph - N/A   Clear
9:30 PM 55.4 °F 30.2 °F 38% 30.30 in - North 6.9 mph - N/A   Clear
10:00 PM 55.4 °F 30.2 °F 38% 30.30 in - North 5.8 mph - N/A   Clear
10:30 PM 53.6 °F 32.0 °F 44% 30.30 in - NNW 4.6 mph - N/A   Clear
11:00 PM 52 °F 31 °F 32% 30.33 in 19 mi Calm Calm - -  
11:00 PM 51.8 °F 32.0 °F 47% 30.30 in - NNW 6.9 mph - N/A   Clear
11:30 PM 51.8 °F 30.2 °F 44% 30.30 in - NNW 6.9 mph - N/A   Clear